Wetterdaten: Samstag, 27.07.2013
Datum Zeit Temperatur Luftfeuchte Luftdruck Regen Wind Richtung Richtung Taupunkt Windchill Windben
27.07.2013 00:00 17,4 C 73 % 1019,2 hPa 0,0 l/m 0,0 km/h (0 Bft) S-SW 202 12,5 C 17,7 C 0,0 km/h (0 Bft)
27.07.2013 00:05 17,3 C 73 % 1019,2 hPa 0,0 l/m 0,0 km/h (0 Bft) S 180 12,4 C 17,6 C 0,0 km/h (0 Bft)
27.07.2013 00:10 17,2 C 74 % 1019,2 hPa 0,0 l/m 0,0 km/h (0 Bft) S-SW 202 12,5 C 17,5 C 0,0 km/h (0 Bft)
27.07.2013 00:15 17,0 C 74 % 1019,2 hPa 0,0 l/m 0,0 km/h (0 Bft) S-SW 202 12,3 C 17,3 C 0,0 km/h (0 Bft)
27.07.2013 00:20 17,2 C 75 % 1019,4 hPa 0,0 l/m 0,2 km/h (0 Bft) O 90 12,7 C 17,2 C 1,6 km/h (1 Bft)
27.07.2013 00:25 17,5 C 75 % 1019,4 hPa 0,0 l/m 0,3 km/h (0 Bft) S-SW 202 13,0 C 17,1 C 0,0 km/h (0 Bft)
27.07.2013 00:30 17,4 C 74 % 1019,4 hPa 0,0 l/m 0,3 km/h (0 Bft) S 180 12,7 C 17,2 C 2,7 km/h (1 Bft)
27.07.2013 00:35 17,5 C 74 % 1019,4 hPa 0,0 l/m 0,3 km/h (0 Bft) SO 135 12,8 C 17,3 C 0,0 km/h (0 Bft)
27.07.2013 00:40 17,5 C 74 % 1019,2 hPa 0,0 l/m 0,3 km/h (0 Bft) S-SO 157 12,8 C 17,3 C 0,0 km/h (0 Bft)
27.07.2013 00:45 17,7 C 74 % 1019,2 hPa 0,0 l/m 0,2 km/h (0 Bft) NO 45 13,0 C 17,3 C 0,0 km/h (0 Bft)
27.07.2013 00:50 17,4 C 74 % 1019,2 hPa 0,0 l/m 0,2 km/h (0 Bft) W-SW 247 12,7 C 17,3 C 0,0 km/h (0 Bft)
27.07.2013 00:55 17,1 C 75 % 1019,2 hPa 0,0 l/m 0,0 km/h (0 Bft) O-SO 112 12,6 C 17,1 C 0,0 km/h (0 Bft)
27.07.2013 01:00 17,0 C 75 % 1019,2 hPa 0,0 l/m 0,0 km/h (0 Bft) O-SO 112 12,5 C 17,0 C 0,0 km/h (0 Bft)
27.07.2013 01:05 16,9 C 75 % 1019,2 hPa 0,0 l/m 0,0 km/h (0 Bft) W-SW 247 12,4 C 16,9 C 1,6 km/h (1 Bft)
27.07.2013 01:10 17,2 C 75 % 1019,2 hPa 0,0 l/m 0,2 km/h (0 Bft) O-SO 112 12,7 C 17,1 C 0,0 km/h (0 Bft)
27.07.2013 01:15 17,4 C 74 % 1019,2 hPa 0,0 l/m 0,2 km/h (0 Bft) W-SW 247 12,7 C 17,3 C 0,0 km/h (0 Bft)
27.07.2013 01:20 17,5 C 74 % 1019,1 hPa 0,0 l/m 0,0 km/h (0 Bft) W-NW 292 12,8 C 17,5 C 0,0 km/h (0 Bft)
27.07.2013 01:25 17,5 C 73 % 1019,1 hPa 0,0 l/m 0,0 km/h (0 Bft) W-NW 292 12,6 C 17,7 C 0,0 km/h (0 Bft)
27.07.2013 01:30 17,7 C 73 % 1019,1 hPa 0,0 l/m 0,2 km/h (0 Bft) W 270 12,8 C 17,7 C 0,0 km/h (0 Bft)
27.07.2013 01:35 17,5 C 73 % 1019,1 hPa 0,0 l/m 0,5 km/h (0 Bft) W 270 12,6 C 17,9 C 0,0 km/h (0 Bft)
27.07.2013 01:40 17,3 C 73 % 1019,1 hPa 0,0 l/m 0,3 km/h (0 Bft) W-SW 247 12,4 C 17,7 C 3,4 km/h (1 Bft)
27.07.2013 01:45 17,1 C 73 % 1019,1 hPa 0,0 l/m 0,0 km/h (0 Bft) S-SO 157 12,2 C 17,4 C 0,0 km/h (0 Bft)
27.07.2013 01:50 17,1 C 74 % 1019,1 hPa 0,0 l/m 0,0 km/h (0 Bft) W-SW 247 12,4 C 17,3 C 0,0 km/h (0 Bft)
27.07.2013 01:55 16,9 C 74 % 1019,1 hPa 0,0 l/m 0,0 km/h (0 Bft) W-SW 247 12,2 C 17,1 C 0,0 km/h (0 Bft)
27.07.2013 02:00 17,1 C 74 % 1018,9 hPa 0,0 l/m 0,2 km/h (0 Bft) S-SO 157 12,4 C 17,0 C 1,6 km/h (1 Bft)
27.07.2013 02:05 17,3 C 74 % 1018,9 hPa 0,0 l/m 0,2 km/h (0 Bft) W-SW 247 12,6 C 17,1 C 0,0 km/h (0 Bft)
27.07.2013 02:10 17,1 C 74 % 1018,9 hPa 0,0 l/m 0,2 km/h (0 Bft) S 180 12,4 C 17,1 C 0,0 km/h (0 Bft)
27.07.2013 02:15 16,8 C 75 % 1018,9 hPa 0,0 l/m 0,2 km/h (0 Bft) S-SW 202 12,3 C 17,0 C 1,6 km/h (1 Bft)
27.07.2013 02:20 16,7 C 75 % 1018,6 hPa 0,0 l/m 0,3 km/h (0 Bft) S 180 12,2 C 16,9 C 0,0 km/h (0 Bft)
27.07.2013 02:25 16,5 C 76 % 1018,6 hPa 0,0 l/m 0,2 km/h (0 Bft) O-NO 67 12,3 C 16,7 C 0,0 km/h (0 Bft)
27.07.2013 02:30 16,5 C 76 % 1018,6 hPa 0,0 l/m 0,2 km/h (0 Bft) W-NW 292 12,3 C 16,7 C 1,6 km/h (1 Bft)
27.07.2013 02:35 16,8 C 77 % 1018,6 hPa 0,0 l/m 0,3 km/h (0 Bft) W-SW 247 12,7 C 16,7 C 0,0 km/h (0 Bft)
27.07.2013 02:40 16,9 C 76 % 1018,7 hPa 0,0 l/m 0,3 km/h (0 Bft) S 180 12,6 C 16,7 C 0,0 km/h (0 Bft)
27.07.2013 02:45 17,1 C 75 % 1018,7 hPa 0,0 l/m 0,5 km/h (0 Bft) W 270 12,6 C 16,9 C 5,0 km/h (1 Bft)
27.07.2013 02:50 16,9 C 75 % 1018,7 hPa 0,0 l/m 0,5 km/h (0 Bft) W 270 12,4 C 17,1 C 0,0 km/h (0 Bft)
27.07.2013 02:55 17,0 C 75 % 1018,7 hPa 0,0 l/m 0,0 km/h (0 Bft) W-SW 247 12,5 C 17,0 C 0,0 km/h (0 Bft)
27.07.2013 03:00 16,8 C 75 % 1018,5 hPa 0,0 l/m 0,2 km/h (0 Bft) W 270 12,3 C 17,1 C 0,0 km/h (0 Bft)
27.07.2013 03:05 16,9 C 75 % 1018,5 hPa 0,0 l/m 0,2 km/h (0 Bft) W 270 12,4 C 17,1 C 2,1 km/h (1 Bft)
27.07.2013 03:10 17,1 C 75 % 1018,5 hPa 0,0 l/m 0,2 km/h (0 Bft) W-SW 247 12,6 C 17,4 C 0,0 km/h (0 Bft)
27.07.2013 03:15 17,3 C 75 % 1018,5 hPa 0,0 l/m 0,2 km/h (0 Bft) N 360 12,8 C 17,7 C 0,0 km/h (0 Bft)
27.07.2013 03:20 17,3 C 75 % 1018,4 hPa 0,0 l/m 0,2 km/h (0 Bft) W-NW 292 12,8 C 17,7 C 0,0 km/h (0 Bft)
27.07.2013 03:25 17,6 C 74 % 1018,4 hPa 0,0 l/m 0,2 km/h (0 Bft) W 270 12,9 C 17,8 C 0,0 km/h (0 Bft)
27.07.2013 03:30 17,7 C 74 % 1018,4 hPa 0,0 l/m 0,3 km/h (0 Bft) N-NO 22 13,0 C 17,9 C 1,6 km/h (1 Bft)
27.07.2013 03:35 17,7 C 73 % 1018,4 hPa 0,0 l/m 0,2 km/h (0 Bft) W 270 12,8 C 17,9 C 0,0 km/h (0 Bft)
27.07.2013 03:40 17,7 C 73 % 1018,1 hPa 0,0 l/m 0,3 km/h (0 Bft) NO 45 12,8 C 17,9 C 3,1 km/h (1 Bft)
27.07.2013 03:45 17,8 C 72 % 1018,1 hPa 0,0 l/m 0,3 km/h (0 Bft) O 90 12,7 C 18,1 C 0,0 km/h (0 Bft)
27.07.2013 03:50 17,8 C 72 % 1018,1 hPa 0,0 l/m 0,3 km/h (0 Bft) W-SW 247 12,7 C 18,1 C 0,0 km/h (0 Bft)
27.07.2013 03:55 17,8 C 72 % 1018,1 hPa 0,0 l/m 0,2 km/h (0 Bft) W-SW 247 12,7 C 18,2 C 2,6 km/h (1 Bft)
27.07.2013 04:00 17,7 C 71 % 1018,1 hPa 0,0 l/m 0,3 km/h (0 Bft) W-NW 292 12,4 C 18,4 C 1,6 km/h (1 Bft)
27.07.2013 04:05 17,8 C 71 % 1018,1 hPa 0,0 l/m 0,5 km/h (0 Bft) W 270 12,5 C 18,4 C 1,9 km/h (1 Bft)
27.07.2013 04:10 17,8 C 71 % 1018,1 hPa 0,0 l/m 0,3 km/h (0 Bft) W-SW 247 12,5 C 18,4 C 0,0 km/h (0 Bft)
27.07.2013 04:15 17,9 C 71 % 1018,1 hPa 0,0 l/m 0,2 km/h (0 Bft) N-NO 22 12,6 C 18,4 C 0,0 km/h (0 Bft)
27.07.2013 04:20 17,8 C 71 % 1018,1 hPa 0,0 l/m 0,5 km/h (0 Bft) O 90 12,5 C 18,4 C 2,4 km/h (1 Bft)
27.07.2013 04:25 17,7 C 71 % 1018,1 hPa 0,0 l/m 0,6 km/h (0 Bft) W 270 12,4 C 18,6 C 6,1 km/h (2 Bft)
27.07.2013 04:30 17,7 C 71 % 1018,1 hPa 0,0 l/m 0,5 km/h (0 Bft) W 270 12,4 C 18,6 C 0,0 km/h (0 Bft)
27.07.2013 04:35 17,8 C 71 % 1018,1 hPa 0,0 l/m 0,3 km/h (0 Bft) W-SW 247 12,5 C 18,6 C 0,0 km/h (0 Bft)
27.07.2013 04:40 18,0 C 71 % 1018,3 hPa 0,0 l/m 1,0 km/h (0 Bft) S 180 12,7 C 18,6 C 2,3 km/h (1 Bft)
27.07.2013 04:45 18,0 C 70 % 1018,3 hPa 0,0 l/m 0,8 km/h (0 Bft) S-SO 157 12,4 C 18,7 C 0,0 km/h (0 Bft)
27.07.2013 04:50 18,0 C 70 % 1018,3 hPa 0,0 l/m 0,3 km/h (0 Bft) O-SO 112 12,4 C 18,5 C 1,8 km/h (1 Bft)
27.07.2013 04:55 17,9 C 70 % 1018,3 hPa 0,0 l/m 0,6 km/h (0 Bft) S-SW 202 12,3 C 18,6 C 0,0 km/h (0 Bft)
27.07.2013 05:00 17,8 C 70 % 1018,3 hPa 0,0 l/m 1,0 km/h (0 Bft) W-SW 247 12,3 C 18,7 C 0,0 km/h (0 Bft)
27.07.2013 05:05 18,1 C 70 % 1018,3 hPa 0,0 l/m 0,6 km/h (0 Bft) W-SW 247 12,5 C 18,7 C 0,0 km/h (0 Bft)
27.07.2013 05:10 17,9 C 70 % 1018,3 hPa 0,0 l/m 0,6 km/h (0 Bft) W-SW 247 12,3 C 18,7 C 0,0 km/h (0 Bft)
27.07.2013 05:15 17,8 C 70 % 1018,3 hPa 0,0 l/m 0,3 km/h (0 Bft) S-SW 202 12,3 C 18,6 C 0,0 km/h (0 Bft)
27.07.2013 05:20 17,9 C 70 % 1018,2 hPa 0,0 l/m 0,3 km/h (0 Bft) W-SW 247 12,3 C 18,5 C 2,1 km/h (1 Bft)
27.07.2013 05:25 17,7 C 71 % 1018,2 hPa 0,0 l/m 0,5 km/h (0 Bft) W-SW 247 12,4 C 18,4 C 0,0 km/h (0 Bft)
27.07.2013 05:30 17,6 C 71 % 1018,2 hPa 0,0 l/m 0,5 km/h (0 Bft) W-SW 247 12,3 C 18,2 C 0,0 km/h (0 Bft)
27.07.2013 05:35 17,4 C 71 % 1018,2 hPa 0,0 l/m 0,3 km/h (0 Bft) SW 225 12,1 C 18,0 C 0,0 km/h (0 Bft)
27.07.2013 05:40 17,4 C 71 % 1018,3 hPa 0,0 l/m 0,2 km/h (0 Bft) W-SW 247 12,1 C 17,9 C 0,0 km/h (0 Bft)
27.07.2013 05:45 17,4 C 71 % 1018,3 hPa 0,0 l/m 0,2 km/h (0 Bft) W-SW 247 12,1 C 17,7 C 0,0 km/h (0 Bft)
27.07.2013 05:50 17,3 C 71 % 1018,3 hPa 0,0 l/m 0,3 km/h (0 Bft) W-SW 247 12,0 C 17,7 C 0,0 km/h (0 Bft)
27.07.2013 05:55 17,1 C 71 % 1018,3 hPa 0,0 l/m 0,2 km/h (0 Bft) W-SW 247 11,8 C 17,4 C 0,0 km/h (0 Bft)
27.07.2013 06:00 17,0 C 72 % 1018,5 hPa 0,0 l/m 0,2 km/h (0 Bft) W-SW 247 11,9 C 17,3 C 0,0 km/h (0 Bft)
27.07.2013 06:05 16,8 C 73 % 1018,5 hPa 0,0 l/m 0,2 km/h (0 Bft) W-SW 247 11,9 C 17,1 C 0,0 km/h (0 Bft)
27.07.2013 06:10 16,9 C 73 % 1018,5 hPa 0,0 l/m 0,0 km/h (0 Bft) W-SW 247 12,0 C 17,2 C 0,0 km/h (0 Bft)
27.07.2013 06:15 16,8 C 73 % 1018,5 hPa 0,0 l/m 0,0 km/h (0 Bft) W-SW 247 11,9 C 17,1 C 0,0 km/h (0 Bft)
27.07.2013 06:20 16,9 C 73 % 1018,6 hPa 0,0 l/m 0,0 km/h (0 Bft) W-SW 247 12,0 C 17,1 C 0,0 km/h (0 Bft)
27.07.2013 06:25 17,5 C 73 % 1018,6 hPa 0,0 l/m 0,0 km/h (0 Bft) W-SW 247 12,6 C 17,1 C 0,0 km/h (0 Bft)
27.07.2013 06:30 17,4 C 73 % 1018,6 hPa 0,0 l/m 0,0 km/h (0 Bft) W-SW 247 12,5 C 17,2 C 0,0 km/h (0 Bft)
27.07.2013 06:35 17,3 C 73 % 1018,6 hPa 0,0 l/m 0,0 km/h (0 Bft) W 270 12,4 C 17,3 C 0,0 km/h (0 Bft)
27.07.2013 06:40 17,5 C 73 % 1018,5 hPa 0,0 l/m 0,0 km/h (0 Bft) W 270 12,6 C 18,1 C 0,0 km/h (0 Bft)
27.07.2013 06:45 19,8 C 70 % 1018,5 hPa 0,0 l/m 0,2 km/h (0 Bft) W-SW 247 14,2 C 19,6 C 0,0 km/h (0 Bft)
27.07.2013 06:50 20,8 C 68 % 1018,5 hPa 0,0 l/m 0,2 km/h (0 Bft) W 270 14,7 C 20,4 C 0,0 km/h (0 Bft)
27.07.2013 06:55 22,0 C 66 % 1018,5 hPa 0,0 l/m 0,5 km/h (0 Bft) W-SW 247 15,3 C 21,5 C 1,8 km/h (1 Bft)
27.07.2013 07:00 22,6 C 65 % 1018,7 hPa 0,0 l/m 0,6 km/h (0 Bft) W 270 15,7 C 22,3 C 2,6 km/h (1 Bft)
27.07.2013 07:05 23,1 C 61 % 1018,7 hPa 0,0 l/m 0,5 km/h (0 Bft) W-SW 247 15,2 C 23,2 C 0,0 km/h (0 Bft)
27.07.2013 07:10 24,2 C 60 % 1018,7 hPa 0,0 l/m 0,3 km/h (0 Bft) W 270 15,9 C 23,7 C 0,0 km/h (0 Bft)
27.07.2013 07:15 25,4 C 59 % 1018,7 hPa 0,0 l/m 0,3 km/h (0 Bft) SW 225 16,8 C 24,4 C 0,0 km/h (0 Bft)
27.07.2013 07:20 24,7 C 56 % 1018,7 hPa 0,0 l/m 0,5 km/h (0 Bft) N-NO 22 15,3 C 24,8 C 0,0 km/h (0 Bft)
27.07.2013 07:25 25,4 C 58 % 1018,7 hPa 0,0 l/m 0,2 km/h (0 Bft) W 270 16,5 C 25,9 C 0,0 km/h (0 Bft)
27.07.2013 07:30 26,5 C 56 % 1018,7 hPa 0,0 l/m 0,0 km/h (0 Bft) W-SW 247 17,0 C 26,5 C 1,9 km/h (1 Bft)
27.07.2013 07:35 26,8 C 53 % 1018,7 hPa 0,0 l/m 0,3 km/h (0 Bft) W-SW 247 16,4 C 26,8 C 0,0 km/h (0 Bft)
27.07.2013 07:40 27,3 C 53 % 1018,8 hPa 0,0 l/m 0,3 km/h (0 Bft) W-SW 247 16,9 C 27,0 C 0,0 km/h (0 Bft)
27.07.2013 07:45 28,6 C 51 % 1018,8 hPa 0,0 l/m 0,2 km/h (0 Bft) SW 225 17,4 C 27,4 C 0,0 km/h (0 Bft)
27.07.2013 07:50 28,8 C 50 % 1018,8 hPa 0,0 l/m 0,0 km/h (0 Bft) W-SW 247 17,3 C 27,8 C 0,0 km/h (0 Bft)
27.07.2013 07:55 29,8 C 49 % 1018,8 hPa 0,0 l/m 0,0 km/h (0 Bft) W-SW 247 17,9 C 28,6 C 0,0 km/h (0 Bft)
27.07.2013 08:00 28,1 C 48 % 1018,8 hPa 0,0 l/m 0,0 km/h (0 Bft) W-SW 247 16,0 C 28,9 C 0,0 km/h (0 Bft)
27.07.2013 08:05 28,1 C 49 % 1018,8 hPa 0,0 l/m 0,2 km/h (0 Bft) NO 45 16,4 C 29,1 C 0,0 km/h (0 Bft)
27.07.2013 08:10 29,1 C 49 % 1018,8 hPa 0,0 l/m 0,2 km/h (0 Bft) NO 45 17,3 C 29,9 C 0,0 km/h (0 Bft)
27.07.2013 08:15 29,1 C 48 % 1018,8 hPa 0,0 l/m 0,0 km/h (0 Bft) NO 45 16,9 C 30,7 C 0,0 km/h (0 Bft)
27.07.2013 08:20 29,3 C 48 % 1018,8 hPa 0,0 l/m 0,0 km/h (0 Bft) S-SW 202 17,1 C 30,8 C 0,0 km/h (0 Bft)
27.07.2013 08:25 29,0 C 45 % 1018,8 hPa 0,0 l/m 0,0 km/h (0 Bft) N 360 15,8 C 31,5 C 0,0 km/h (0 Bft)
27.07.2013 08:30 29,3 C 46 % 1018,8 hPa 0,0 l/m 0,2 km/h (0 Bft) O 90 16,5 C 31,5 C 1,6 km/h (1 Bft)
27.07.2013 08:35 29,8 C 46 % 1018,8 hPa 0,0 l/m 0,3 km/h (0 Bft) O 90 16,9 C 31,9 C 1,8 km/h (1 Bft)
27.07.2013 08:40 30,0 C 47 % 1018,9 hPa 0,0 l/m 0,2 km/h (0 Bft) O 90 17,4 C 32,4 C 1,6 km/h (1 Bft)
27.07.2013 08:45 30,2 C 44 % 1018,9 hPa 0,0 l/m 0,2 km/h (0 Bft) N-NO 22 16,6 C 32,7 C 0,0 km/h (0 Bft)
27.07.2013 08:50 30,1 C 45 % 1018,9 hPa 0,0 l/m 0,2 km/h (0 Bft) O 90 16,8 C 33,1 C 0,0 km/h (0 Bft)
27.07.2013 08:55 30,6 C 45 % 1018,9 hPa 0,0 l/m 0,0 km/h (0 Bft) O 90 17,3 C 33,7 C 0,0 km/h (0 Bft)
27.07.2013 09:00 30,6 C 45 % 1018,9 hPa 0,0 l/m 0,0 km/h (0 Bft) O 90 17,3 C 33,9 C 0,0 km/h (0 Bft)
27.07.2013 09:05 31,2 C 44 % 1018,9 hPa 0,0 l/m 0,0 km/h (0 Bft) NO 45 17,5 C 34,2 C 1,6 km/h (1 Bft)
27.07.2013 09:10 31,0 C 45 % 1018,9 hPa 0,0 l/m 0,0 km/h (0 Bft) O-NO 67 17,6 C 34,2 C 0,0 km/h (0 Bft)
27.07.2013 09:15 31,5 C 44 % 1018,9 hPa 0,0 l/m 0,0 km/h (0 Bft) O 90 17,7 C 34,7 C 0,0 km/h (0 Bft)
27.07.2013 09:20 31,6 C 44 % 1018,8 hPa 0,0 l/m 0,0 km/h (0 Bft) N 360 17,8 C 34,8 C 0,0 km/h (0 Bft)
27.07.2013 09:25 32,4 C 42 % 1018,8 hPa 0,0 l/m 0,0 km/h (0 Bft) NW 315 17,8 C 35,4 C 0,0 km/h (0 Bft)
27.07.2013 09:30 32,3 C 42 % 1018,8 hPa 0,0 l/m 0,0 km/h (0 Bft) W-NW 292 17,7 C 35,6 C 0,0 km/h (0 Bft)
27.07.2013 09:35 32,7 C 39 % 1018,8 hPa 0,0 l/m 0,0 km/h (0 Bft) W-SW 247 16,9 C 35,8 C 0,0 km/h (0 Bft)
27.07.2013 09:40 33,4 C 40 % 1018,8 hPa 0,0 l/m 0,0 km/h (0 Bft) W-SW 247 17,9 C 36,1 C 0,0 km/h (0 Bft)
27.07.2013 09:45 33,4 C 38 % 1018,8 hPa 0,0 l/m 0,5 km/h (0 Bft) N-NW 337 17,1 C 35,8 C 2,4 km/h (1 Bft)
27.07.2013 09:50 32,8 C 37 % 1018,8 hPa 0,0 l/m 0,6 km/h (0 Bft) N-NO 22 16,2 C 35,5 C 0,0 km/h (0 Bft)
27.07.2013 09:55 32,8 C 38 % 1018,8 hPa 0,0 l/m 0,6 km/h (0 Bft) NO 45 16,6 C 35,5 C 0,0 km/h (0 Bft)
27.07.2013 10:00 33,2 C 39 % 1018,9 hPa 0,0 l/m 0,8 km/h (0 Bft) W-SW 247 17,3 C 35,7 C 3,5 km/h (1 Bft)
27.07.2013 10:05 32,7 C 38 % 1018,9 hPa 0,0 l/m 1,1 km/h (1 Bft) W-SW 247 16,5 C 35,3 C 0,0 km/h (0 Bft)
27.07.2013 10:10 33,5 C 38 % 1018,9 hPa 0,0 l/m 0,8 km/h (0 Bft) W-SW 247 17,2 C 35,7 C 0,0 km/h (0 Bft)
27.07.2013 10:15 32,9 C 36 % 1018,9 hPa 0,0 l/m 0,5 km/h (0 Bft) N-NW 337 15,8 C 36,1 C 0,0 km/h (0 Bft)
27.07.2013 10:20 33,2 C 36 % 1019,2 hPa 0,0 l/m 0,6 km/h (0 Bft) W-SW 247 16,1 C 36,1 C 3,2 km/h (1 Bft)
27.07.2013 10:25 33,1 C 32 % 1019,2 hPa 0,0 l/m 2,7 km/h (1 Bft) W-NW 292 14,2 C 35,2 C 4,3 km/h (1 Bft)
27.07.2013 10:30 33,1 C 31 % 1019,2 hPa 0,0 l/m 3,5 km/h (1 Bft) N 360 13,7 C 34,6 C 5,3 km/h (1 Bft)
27.07.2013 10:35 33,2 C 33 % 1019,2 hPa 0,0 l/m 3,2 km/h (1 Bft) SO 135 14,7 C 34,2 C 6,9 km/h (2 Bft)
27.07.2013 10:40 33,1 C 33 % 1019,4 hPa 0,0 l/m 2,6 km/h (1 Bft) N-NO 22 14,6 C 34,7 C 3,9 km/h (1 Bft)
27.07.2013 10:45 33,2 C 32 % 1019,4 hPa 0,0 l/m 1,6 km/h (1 Bft) NO 45 14,2 C 34,8 C 2,6 km/h (1 Bft)
27.07.2013 10:50 33,4 C 31 % 1019,4 hPa 0,0 l/m 2,4 km/h (1 Bft) W-NW 292 13,9 C 34,8 C 1,8 km/h (1 Bft)
27.07.2013 10:55 32,2 C 31 % 1019,4 hPa 0,0 l/m 3,5 km/h (1 Bft) N-NW 337 12,9 C 34,7 C 8,0 km/h (2 Bft)
27.07.2013 11:00 32,5 C 32 % 1019,4 hPa 0,0 l/m 3,5 km/h (1 Bft) NW 315 13,6 C 34,5 C 5,6 km/h (1 Bft)
27.07.2013 11:05 32,7 C 33 % 1019,4 hPa 0,0 l/m 3,9 km/h (1 Bft) N 360 14,3 C 34,4 C 9,2 km/h (2 Bft)
27.07.2013 11:10 32,6 C 31 % 1019,4 hPa 0,0 l/m 4,2 km/h (1 Bft) NO 45 13,2 C 34,2 C 6,6 km/h (2 Bft)
27.07.2013 11:15 33,2 C 32 % 1019,4 hPa 0,0 l/m 4,3 km/h (1 Bft) NW 315 14,2 C 34,2 C 5,0 km/h (1 Bft)
27.07.2013 11:20 33,3 C 30 % 1019,3 hPa 0,0 l/m 3,5 km/h (1 Bft) N 360 13,3 C 34,4 C 5,6 km/h (1 Bft)
27.07.2013 11:25 33,5 C 30 % 1019,3 hPa 0,0 l/m 3,9 km/h (1 Bft) W-NW 292 13,5 C 34,5 C 6,1 km/h (2 Bft)
27.07.2013 11:30 33,6 C 30 % 1019,3 hPa 0,0 l/m 4,7 km/h (1 Bft) W-NW 292 13,6 C 34,3 C 5,0 km/h (1 Bft)
27.07.2013 11:35 33,5 C 28 % 1019,3 hPa 0,0 l/m 5,1 km/h (1 Bft) W-NW 292 12,5 C 34,1 C 9,2 km/h (2 Bft)
27.07.2013 11:40 33,5 C 30 % 1019,2 hPa 0,0 l/m 4,8 km/h (1 Bft) N 360 13,5 C 33,9 C 6,4 km/h (2 Bft)
27.07.2013 11:45 33,6 C 28 % 1019,2 hPa 0,0 l/m 4,5 km/h (1 Bft) W-NW 292 12,5 C 33,8 C 9,7 km/h (2 Bft)
27.07.2013 11:50 33,6 C 29 % 1019,2 hPa 0,0 l/m 4,3 km/h (1 Bft) N-NW 337 13,1 C 33,8 C 6,6 km/h (2 Bft)
27.07.2013 11:55 33,4 C 29 % 1019,2 hPa 0,0 l/m 5,1 km/h (1 Bft) W-NW 292 12,9 C 33,7 C 3,5 km/h (1 Bft)
27.07.2013 12:00 33,7 C 28 % 1019,1 hPa 0,0 l/m 4,5 km/h (1 Bft) N-NO 22 12,6 C 34,2 C 8,4 km/h (2 Bft)
27.07.2013 12:05 33,6 C 25 % 1019,1 hPa 0,0 l/m 4,8 km/h (1 Bft) NO 45 10,8 C 34,2 C 13,4 km/h (3 Bft)
27.07.2013 12:10 33,8 C 26 % 1019,1 hPa 0,0 l/m 5,6 km/h (1 Bft) N-NW 337 11,6 C 34,2 C 4,0 km/h (1 Bft)
27.07.2013 12:15 33,6 C 26 % 1019,1 hPa 0,0 l/m 4,8 km/h (1 Bft) N-NW 337 11,4 C 34,6 C 4,0 km/h (1 Bft)
27.07.2013 12:20 33,9 C 26 % 1019,1 hPa 0,0 l/m 4,3 km/h (1 Bft) N-NO 22 11,7 C 34,7 C 2,9 km/h (1 Bft)
27.07.2013 12:25 33,7 C 27 % 1019,1 hPa 0,0 l/m 5,1 km/h (1 Bft) W-NW 292 12,1 C 34,7 C 5,5 km/h (1 Bft)
27.07.2013 12:30 33,8 C 27 % 1019,1 hPa 0,0 l/m 5,3 km/h (1 Bft) W 270 12,2 C 34,5 C 3,7 km/h (1 Bft)
27.07.2013 12:35 33,6 C 25 % 1019,1 hPa 0,0 l/m 5,1 km/h (1 Bft) W-NW 292 10,8 C 34,5 C 5,1 km/h (1 Bft)
27.07.2013 12:40 33,8 C 27 % 1018,9 hPa 0,0 l/m 5,0 km/h (1 Bft) N 360 12,2 C 34,7 C 8,0 km/h (2 Bft)
27.07.2013 12:45 33,8 C 28 % 1018,9 hPa 0,0 l/m 4,7 km/h (1 Bft) W-NW 292 12,7 C 34,8 C 5,0 km/h (1 Bft)
27.07.2013 12:50 33,7 C 27 % 1018,9 hPa 0,0 l/m 4,7 km/h (1 Bft) NW 315 12,1 C 34,7 C 3,7 km/h (1 Bft)
27.07.2013 12:55 33,7 C 29 % 1018,9 hPa 0,0 l/m 4,3 km/h (1 Bft) N-NO 22 13,2 C 35,1 C 8,2 km/h (2 Bft)
27.07.2013 13:00 33,6 C 30 % 1018,8 hPa 0,0 l/m 3,9 km/h (1 Bft) W-NW 292 13,6 C 35,3 C 3,7 km/h (1 Bft)
27.07.2013 13:05 33,2 C 30 % 1018,8 hPa 0,0 l/m 4,8 km/h (1 Bft) NW 315 13,3 C 35,3 C 8,2 km/h (2 Bft)
27.07.2013 13:10 33,6 C 30 % 1018,8 hPa 0,0 l/m 5,0 km/h (1 Bft) W-NW 292 13,6 C 35,1 C 9,2 km/h (2 Bft)
27.07.2013 13:15 33,7 C 29 % 1018,8 hPa 0,0 l/m 5,1 km/h (1 Bft) N-NW 337 13,2 C 35,1 C 5,6 km/h (1 Bft)
27.07.2013 13:20 33,8 C 29 % 1018,7 hPa 0,0 l/m 5,5 km/h (1 Bft) W-NW 292 13,2 C 35,0 C 8,7 km/h (2 Bft)
27.07.2013 13:25 33,3 C 29 % 1018,7 hPa 0,0 l/m 6,0 km/h (2 Bft) W-NW 292 12,8 C 34,7 C 7,1 km/h (2 Bft)
27.07.2013 13:30 33,9 C 28 % 1018,7 hPa 0,0 l/m 5,8 km/h (2 Bft) W-NW 292 12,8 C 34,9 C 6,0 km/h (2 Bft)
27.07.2013 13:35 33,9 C 27 % 1018,7 hPa 0,0 l/m 5,6 km/h (1 Bft) NW 315 12,2 C 34,9 C 10,5 km/h (2 Bft)
27.07.2013 13:40 33,9 C 28 % 1018,7 hPa 0,0 l/m 5,8 km/h (2 Bft) W-NW 292 12,8 C 34,8 C 6,9 km/h (2 Bft)
27.07.2013 13:45 33,7 C 29 % 1018,7 hPa 0,0 l/m 5,8 km/h (2 Bft) N 360 13,2 C 35,1 C 10,8 km/h (2 Bft)
27.07.2013 13:50 34,0 C 28 % 1018,7 hPa 0,0 l/m 5,1 km/h (1 Bft) S 180 12,9 C 35,3 C 2,1 km/h (1 Bft)
27.07.2013 13:55 34,1 C 26 % 1018,7 hPa 0,0 l/m 4,5 km/h (1 Bft) W-NW 292 11,8 C 35,7 C 9,2 km/h (2 Bft)
27.07.2013 14:00 33,9 C 27 % 1018,5 hPa 0,0 l/m 4,7 km/h (1 Bft) N-NO 22 12,2 C 35,7 C 9,7 km/h (2 Bft)
27.07.2013 14:05 34,3 C 25 % 1018,5 hPa 0,0 l/m 4,5 km/h (1 Bft) W-NW 292 11,4 C 35,9 C 1,6 km/h (1 Bft)
27.07.2013 14:10 33,9 C 25 % 1018,5 hPa 0,0 l/m 4,0 km/h (1 Bft) NW 315 11,1 C 36,1 C 3,7 km/h (1 Bft)
27.07.2013 14:15 33,5 C 26 % 1018,5 hPa 0,0 l/m 4,7 km/h (1 Bft) N-NW 337 11,3 C 35,2 C 6,0 km/h (2 Bft)
27.07.2013 14:20 34,3 C 27 % 1018,2 hPa 0,0 l/m 4,8 km/h (1 Bft) O-SO 112 12,6 C 35,5 C 4,2 km/h (1 Bft)
27.07.2013 14:25 34,5 C 27 % 1018,2 hPa 0,0 l/m 4,8 km/h (1 Bft) W-SW 247 12,7 C 35,8 C 5,1 km/h (1 Bft)
27.07.2013 14:30 34,1 C 24 % 1018,2 hPa 0,0 l/m 5,8 km/h (2 Bft) W 270 10,6 C 35,9 C 6,1 km/h (2 Bft)
27.07.2013 14:35 34,3 C 25 % 1018,2 hPa 0,0 l/m 5,5 km/h (1 Bft) W-NW 292 11,4 C 36,2 C 5,3 km/h (1 Bft)
27.07.2013 14:40 34,2 C 25 % 1018,2 hPa 0,0 l/m 4,7 km/h (1 Bft) NO 45 11,3 C 36,4 C 10,0 km/h (2 Bft)
27.07.2013 14:45 32,9 C 28 % 1018,2 hPa 0,0 l/m 3,5 km/h (1 Bft) W-NW 292 11,9 C 35,8 C 2,7 km/h (1 Bft)
27.07.2013 14:50 32,1 C 28 % 1018,2 hPa 0,0 l/m 3,7 km/h (1 Bft) N 360 11,3 C 35,1 C 4,5 km/h (1 Bft)
27.07.2013 14:55 32,5 C 28 % 1018,2 hPa 0,0 l/m 2,9 km/h (1 Bft) W-SW 247 11,6 C 34,6 C 2,4 km/h (1 Bft)
27.07.2013 15:00 32,6 C 28 % 1018,4 hPa 0,0 l/m 2,9 km/h (1 Bft) W-NW 292 11,7 C 34,6 C 5,3 km/h (1 Bft)
27.07.2013 15:05 31,8 C 29 % 1018,4 hPa 0,0 l/m 4,2 km/h (1 Bft) N-NW 337 11,5 C 34,0 C 3,4 km/h (1 Bft)
27.07.2013 15:10 31,3 C 32 % 1018,4 hPa 0,0 l/m 4,0 km/h (1 Bft) N-NW 337 12,6 C 33,4 C 2,7 km/h (1 Bft)
27.07.2013 15:15 30,7 C 33 % 1018,4 hPa 0,0 l/m 1,6 km/h (1 Bft) NO 45 12,6 C 32,8 C 0,0 km/h (0 Bft)
27.07.2013 15:20 30,3 C 33 % 1017,6 hPa 0,0 l/m 0,8 km/h (0 Bft) NO 45 12,2 C 32,6 C 2,4 km/h (1 Bft)
27.07.2013 15:25 30,0 C 34 % 1017,6 hPa 0,0 l/m 1,1 km/h (1 Bft) O-NO 67 12,4 C 32,2 C 2,6 km/h (1 Bft)
27.07.2013 15:30 29,3 C 39 % 1017,6 hPa 0,0 l/m 1,3 km/h (1 Bft) NO 45 13,9 C 31,8 C 2,7 km/h (1 Bft)
27.07.2013 15:35 28,9 C 39 % 1017,6 hPa 0,0 l/m 1,1 km/h (1 Bft) O 90 13,5 C 31,3 C 0,0 km/h (0 Bft)
27.07.2013 15:40 28,9 C 40 % 1017,3 hPa 0,0 l/m 1,3 km/h (1 Bft) S-SO 157 13,9 C 30,9 C 1,6 km/h (1 Bft)
27.07.2013 15:45 28,4 C 42 % 1017,3 hPa 0,0 l/m 1,3 km/h (1 Bft) O 90 14,2 C 30,5 C 4,5 km/h (1 Bft)
27.07.2013 15:50 28,3 C 45 % 1017,3 hPa 0,0 l/m 2,7 km/h (1 Bft) O-NO 67 15,2 C 30,0 C 6,1 km/h (2 Bft)
27.07.2013 15:55 26,9 C 50 % 1017,3 hPa 0,0 l/m 4,7 km/h (1 Bft) N 360 15,6 C 28,8 C 6,1 km/h (2 Bft)
27.07.2013 16:00 26,0 C 52 % 1017,5 hPa 0,0 l/m 4,3 km/h (1 Bft) NO 45 15,4 C 27,9 C 3,2 km/h (1 Bft)
27.07.2013 16:05 25,5 C 56 % 1017,5 hPa 0,0 l/m 3,2 km/h (1 Bft) S 180 16,1 C 26,9 C 5,8 km/h (2 Bft)
27.07.2013 16:10 25,2 C 55 % 1017,5 hPa 0,0 l/m 2,3 km/h (1 Bft) SO 135 15,5 C 26,6 C 1,9 km/h (1 Bft)
27.07.2013 16:15 25,2 C 54 % 1017,5 hPa 0,0 l/m 1,3 km/h (1 Bft) SW 225 15,2 C 26,5 C 0,0 km/h (0 Bft)
27.07.2013 16:20 25,1 C 55 % 1017,4 hPa 0,0 l/m 1,6 km/h (1 Bft) SO 135 15,4 C 26,5 C 3,7 km/h (1 Bft)
27.07.2013 16:25 24,6 C 56 % 1017,4 hPa 0,0 l/m 3,2 km/h (1 Bft) S 180 15,2 C 26,2 C 3,2 km/h (1 Bft)
27.07.2013 16:30 24,4 C 56 % 1017,4 hPa 0,0 l/m 3,4 km/h (1 Bft) S 180 15,0 C 25,9 C 2,1 km/h (1 Bft)
27.07.2013 16:35 24,2 C 57 % 1017,4 hPa 0,0 l/m 2,7 km/h (1 Bft) W-NW 292 15,1 C 25,5 C 3,4 km/h (1 Bft)
27.07.2013 16:40 23,8 C 58 % 1017,3 hPa 0,0 l/m 2,7 km/h (1 Bft) SW 225 15,0 C 25,2 C 3,2 km/h (1 Bft)
27.07.2013 16:45 23,6 C 58 % 1017,3 hPa 0,0 l/m 3,1 km/h (1 Bft) S 180 14,8 C 24,9 C 4,3 km/h (1 Bft)
27.07.2013 16:50 23,4 C 59 % 1017,3 hPa 0,0 l/m 2,7 km/h (1 Bft) O-SO 112 14,9 C 24,7 C 4,2 km/h (1 Bft)
27.07.2013 16:55 23,1 C 61 % 1017,3 hPa 0,0 l/m 2,9 km/h (1 Bft) S-SW 202 15,2 C 24,4 C 3,1 km/h (1 Bft)
27.07.2013 17:00 23,0 C 63 % 1017,2 hPa 0,0 l/m 2,9 km/h (1 Bft) W-SW 247 15,6 C 24,3 C 2,6 km/h (1 Bft)
27.07.2013 17:05 22,9 C 64 % 1017,2 hPa 0,0 l/m 2,6 km/h (1 Bft) S 180 15,7 C 24,1 C 2,3 km/h (1 Bft)
27.07.2013 17:10 22,9 C 65 % 1017,2 hPa 0,0 l/m 2,4 km/h (1 Bft) S-SW 202 16,0 C 24,2 C 3,2 km/h (1 Bft)
27.07.2013 17:15 22,9 C 66 % 1017,2 hPa 0,0 l/m 2,1 km/h (1 Bft) W 270 16,2 C 24,2 C 3,5 km/h (1 Bft)
27.07.2013 17:20 23,0 C 66 % 1017,2 hPa 0,0 l/m 2,6 km/h (1 Bft) W-NW 292 16,3 C 24,3 C 5,3 km/h (1 Bft)
27.07.2013 17:25 23,9 C 64 % 1017,2 hPa 0,0 l/m 3,1 km/h (1 Bft) W 270 16,7 C 25,9 C 3,2 km/h (1 Bft)
27.07.2013 17:30 24,5 C 63 % 1017,2 hPa 0,0 l/m 3,1 km/h (1 Bft) N-NO 22 17,0 C 27,4 C 2,7 km/h (1 Bft)
27.07.2013 17:35 24,9 C 62 % 1017,2 hPa 0,0 l/m 2,7 km/h (1 Bft) NW 315 17,1 C 29,0 C 3,7 km/h (1 Bft)
27.07.2013 17:40 25,2 C 62 % 1017,4 hPa 0,0 l/m 2,6 km/h (1 Bft) S-SW 202 17,4 C 29,6 C 2,4 km/h (1 Bft)
27.07.2013 17:45 24,6 C 60 % 1017,4 hPa 0,0 l/m 2,1 km/h (1 Bft) S 180 16,3 C 28,8 C 2,4 km/h (1 Bft)
27.07.2013 17:50 24,2 C 62 % 1017,4 hPa 0,0 l/m 2,3 km/h (1 Bft) W-SW 247 16,4 C 27,8 C 3,9 km/h (1 Bft)
27.07.2013 17:55 23,7 C 64 % 1017,4 hPa 0,0 l/m 2,7 km/h (1 Bft) S-SO 157 16,5 C 26,3 C 3,5 km/h (1 Bft)
27.07.2013 18:00 23,5 C 64 % 1017,0 hPa 0,0 l/m 2,4 km/h (1 Bft) N-NW 337 16,3 C 25,8 C 2,6 km/h (1 Bft)
27.07.2013 18:05 23,2 C 66 % 1017,0 hPa 0,0 l/m 2,1 km/h (1 Bft) O-SO 112 16,5 C 25,4 C 5,1 km/h (1 Bft)
27.07.2013 18:10 23,1 C 67 % 1017,0 hPa 0,0 l/m 2,3 km/h (1 Bft) O-SO 112 16,6 C 25,2 C 5,1 km/h (1 Bft)
27.07.2013 18:15 23,0 C 67 % 1017,0 hPa 0,0 l/m 2,1 km/h (1 Bft) NO 45 16,5 C 25,1 C 5,3 km/h (1 Bft)
27.07.2013 18:20 23,3 C 66 % 1016,9 hPa 0,0 l/m 1,6 km/h (1 Bft) S 180 16,6 C 25,1 C 1,9 km/h (1 Bft)
27.07.2013 18:25 24,2 C 65 % 1016,9 hPa 0,0 l/m 1,8 km/h (1 Bft) W-SW 247 17,2 C 25,4 C 0,0 km/h (0 Bft)
27.07.2013 18:30 24,2 C 65 % 1016,9 hPa 0,0 l/m 2,1 km/h (1 Bft) W-SW 247 17,2 C 25,9 C 4,5 km/h (1 Bft)
27.07.2013 18:35 24,6 C 63 % 1016,9 hPa 0,0 l/m 1,6 km/h (1 Bft) W-NW 292 17,1 C 27,1 C 1,9 km/h (1 Bft)
27.07.2013 18:40 25,1 C 61 % 1016,9 hPa 0,0 l/m 1,4 km/h (1 Bft) S 180 17,0 C 29,0 C 3,4 km/h (1 Bft)
27.07.2013 18:45 25,9 C 59 % 1016,9 hPa 0,0 l/m 1,1 km/h (1 Bft) S-SW 202 17,3 C 31,3 C 2,3 km/h (1 Bft)
27.07.2013 18:50 25,9 C 62 % 1016,9 hPa 0,0 l/m 1,6 km/h (1 Bft) NO 45 18,0 C 32,6 C 4,5 km/h (1 Bft)
27.07.2013 18:55 25,5 C 59 % 1016,9 hPa 0,0 l/m 1,6 km/h (1 Bft) NO 45 16,9 C 32,8 C 0,0 km/h (0 Bft)
27.07.2013 19:00 25,2 C 59 % 1016,9 hPa 0,0 l/m 2,1 km/h (1 Bft) NW 315 16,6 C 32,8 C 2,3 km/h (1 Bft)
27.07.2013 19:05 25,2 C 59 % 1016,9 hPa 0,0 l/m 1,3 km/h (1 Bft) W 270 16,6 C 32,8 C 0,0 km/h (0 Bft)
27.07.2013 19:10 25,2 C 59 % 1016,9 hPa 0,0 l/m 0,8 km/h (0 Bft) S 180 16,6 C 33,1 C 0,0 km/h (0 Bft)
27.07.2013 19:15 25,2 C 58 % 1016,9 hPa 0,0 l/m 0,3 km/h (0 Bft) NO 45 16,3 C 33,4 C 0,0 km/h (0 Bft)
27.07.2013 19:20 25,3 C 58 % 1016,5 hPa 0,0 l/m 0,3 km/h (0 Bft) W 270 16,4 C 33,7 C 0,0 km/h (0 Bft)
27.07.2013 19:25 25,2 C 58 % 1016,5 hPa 0,0 l/m 0,6 km/h (0 Bft) N-NW 337 16,3 C 33,7 C 3,9 km/h (1 Bft)
27.07.2013 19:30 25,1 C 58 % 1016,5 hPa 0,0 l/m 0,8 km/h (0 Bft) N-NO 22 16,2 C 33,3 C 0,0 km/h (0 Bft)
27.07.2013 19:35 25,0 C 59 % 1016,5 hPa 0,0 l/m 1,0 km/h (0 Bft) S-SW 202 16,4 C 33,0 C 2,1 km/h (1 Bft)
27.07.2013 19:40 24,9 C 59 % 1016,3 hPa 0,0 l/m 0,5 km/h (0 Bft) W 270 16,3 C 32,7 C 1,9 km/h (1 Bft)
27.07.2013 19:45 24,6 C 60 % 1016,3 hPa 0,0 l/m 0,6 km/h (0 Bft) NO 45 16,3 C 32,2 C 1,9 km/h (1 Bft)
27.07.2013 19:50 24,4 C 60 % 1016,3 hPa 0,0 l/m 0,6 km/h (0 Bft) S-SW 202 16,1 C 31,9 C 0,0 km/h (0 Bft)
27.07.2013 19:55 24,2 C 61 % 1016,3 hPa 0,0 l/m 0,6 km/h (0 Bft) SO 135 16,2 C 31,5 C 0,0 km/h (0 Bft)
27.07.2013 20:00 24,2 C 62 % 1016,6 hPa 0,0 l/m 0,6 km/h (0 Bft) S-SW 202 16,4 C 30,9 C 2,6 km/h (1 Bft)
27.07.2013 20:05 23,8 C 62 % 1016,6 hPa 0,0 l/m 0,5 km/h (0 Bft) W-SW 247 16,1 C 30,1 C 0,0 km/h (0 Bft)
27.07.2013 20:10 23,7 C 62 % 1016,6 hPa 0,0 l/m 0,5 km/h (0 Bft) O-SO 112 16,0 C 29,6 C 0,0 km/h (0 Bft)
27.07.2013 20:15 23,5 C 62 % 1016,6 hPa 0,0 l/m 0,3 km/h (0 Bft) S-SO 157 15,8 C 29,2 C 3,1 km/h (1 Bft)
27.07.2013 20:20 23,2 C 62 % 1016,6 hPa 0,0 l/m 0,6 km/h (0 Bft) S-SW 202 15,5 C 28,6 C 0,0 km/h (0 Bft)
27.07.2013 20:25 22,9 C 63 % 1016,6 hPa 0,0 l/m 0,5 km/h (0 Bft) W-SW 247 15,5 C 27,8 C 0,0 km/h (0 Bft)
27.07.2013 20:30 22,7 C 64 % 1016,6 hPa 0,0 l/m 0,2 km/h (0 Bft) W-SW 247 15,5 C 27,4 C 0,0 km/h (0 Bft)
27.07.2013 20:35 22,4 C 65 % 1016,6 hPa 0,0 l/m 0,3 km/h (0 Bft) NO 45 15,5 C 26,5 C 2,7 km/h (1 Bft)
27.07.2013 20:40 22,1 C 65 % 1016,3 hPa 0,0 l/m 0,3 km/h (0 Bft) O-NO 67 15,2 C 25,9 C 0,0 km/h (0 Bft)
27.07.2013 20:45 21,8 C 65 % 1016,3 hPa 0,0 l/m 0,5 km/h (0 Bft) O-SO 112 14,9 C 25,0 C 0,0 km/h (0 Bft)
27.07.2013 20:50 21,6 C 66 % 1016,3 hPa 0,0 l/m 0,6 km/h (0 Bft) O-NO 67 15,0 C 24,2 C 2,4 km/h (1 Bft)
27.07.2013 20:55 21,1 C 66 % 1016,3 hPa 0,0 l/m 0,5 km/h (0 Bft) W 270 14,5 C 23,0 C 1,6 km/h (1 Bft)
27.07.2013 21:00 20,9 C 67 % 1016,3 hPa 0,0 l/m 0,5 km/h (0 Bft) N 360 14,5 C 22,5 C 2,9 km/h (1 Bft)
27.07.2013 21:05 20,7 C 68 % 1016,3 hPa 0,0 l/m 1,0 km/h (0 Bft) W-SW 247 14,6 C 22,0 C 0,0 km/h (0 Bft)
27.07.2013 21:10 20,5 C 68 % 1016,3 hPa 0,0 l/m 1,4 km/h (1 Bft) O 90 14,4 C 21,7 C 4,3 km/h (1 Bft)
27.07.2013 21:15 20,3 C 69 % 1016,3 hPa 0,0 l/m 1,1 km/h (1 Bft) SO 135 14,4 C 21,5 C 0,0 km/h (0 Bft)
27.07.2013 21:20 20,2 C 69 % 1016,5 hPa 0,0 l/m 0,6 km/h (0 Bft) W-NW 292 14,3 C 21,4 C 0,0 km/h (0 Bft)
27.07.2013 21:25 20,2 C 70 % 1016,5 hPa 0,0 l/m 0,8 km/h (0 Bft) N 360 14,5 C 21,0 C 0,0 km/h (0 Bft)
27.07.2013 21:30 20,1 C 70 % 1016,5 hPa 0,0 l/m 0,8 km/h (0 Bft) NO 45 14,5 C 20,9 C 0,0 km/h (0 Bft)
27.07.2013 21:35 20,1 C 69 % 1016,5 hPa 0,0 l/m 0,3 km/h (0 Bft) N 360 14,2 C 20,7 C 0,0 km/h (0 Bft)
27.07.2013 21:40 20,1 C 69 % 1016,2 hPa 0,0 l/m 0,5 km/h (0 Bft) O-NO 67 14,2 C 20,7 C 2,9 km/h (1 Bft)
27.07.2013 21:45 19,9 C 68 % 1016,2 hPa 0,0 l/m 0,6 km/h (0 Bft) NW 315 13,8 C 20,7 C 0,0 km/h (0 Bft)
27.07.2013 21:50 19,9 C 68 % 1016,2 hPa 0,0 l/m 0,5 km/h (0 Bft) O 90 13,8 C 20,6 C 0,0 km/h (0 Bft)
27.07.2013 21:55 19,9 C 68 % 1016,2 hPa 0,0 l/m 0,2 km/h (0 Bft) NW 315 13,8 C 20,4 C 1,9 km/h (1 Bft)
27.07.2013 22:00 19,8 C 68 % 1016,3 hPa 0,0 l/m 0,2 km/h (0 Bft) W-NW 292 13,7 C 20,3 C 0,0 km/h (0 Bft)
27.07.2013 22:05 19,7 C 69 % 1016,3 hPa 0,0 l/m 0,3 km/h (0 Bft) W-SW 247 13,8 C 20,1 C 0,0 km/h (0 Bft)
27.07.2013 22:10 19,7 C 69 % 1016,3 hPa 0,0 l/m 0,3 km/h (0 Bft) W-NW 292 13,8 C 20,1 C 0,0 km/h (0 Bft)
27.07.2013 22:15 19,5 C 68 % 1016,3 hPa 0,0 l/m 0,5 km/h (0 Bft) N 360 13,4 C 20,0 C 0,0 km/h (0 Bft)
27.07.2013 22:20 19,5 C 68 % 1016,2 hPa 0,0 l/m 0,6 km/h (0 Bft) NO 45 13,4 C 20,0 C 2,1 km/h (1 Bft)
27.07.2013 22:25 19,8 C 68 % 1016,2 hPa 0,0 l/m 1,0 km/h (0 Bft) N-NW 337 13,7 C 20,0 C 1,8 km/h (1 Bft)
27.07.2013 22:30 19,7 C 67 % 1016,2 hPa 0,0 l/m 0,8 km/h (0 Bft) N 360 13,4 C 20,0 C 0,0 km/h (0 Bft)
27.07.2013 22:35 19,6 C 67 % 1016,2 hPa 0,0 l/m 0,3 km/h (0 Bft) N-NO 22 13,3 C 20,1 C 1,6 km/h (1 Bft)
27.07.2013 22:40 19,5 C 67 % 1016,1 hPa 0,0 l/m 0,6 km/h (0 Bft) SO 135 13,2 C 20,2 C 1,6 km/h (1 Bft)
27.07.2013 22:45 19,5 C 67 % 1016,1 hPa 0,0 l/m 1,0 km/h (0 Bft) W-NW 292 13,2 C 20,3 C 0,0 km/h (0 Bft)
27.07.2013 22:50 19,6 C 67 % 1016,1 hPa 0,0 l/m 0,8 km/h (0 Bft) SO 135 13,3 C 20,2 C 0,0 km/h (0 Bft)
27.07.2013 22:55 19,6 C 67 % 1016,1 hPa 0,0 l/m 1,0 km/h (0 Bft) N-NO 22 13,3 C 20,0 C 1,8 km/h (1 Bft)
27.07.2013 23:00 19,6 C 67 % 1016,2 hPa 0,0 l/m 1,4 km/h (1 Bft) NO 45 13,3 C 20,1 C 0,0 km/h (0 Bft)
27.07.2013 23:05 19,7 C 65 % 1016,2 hPa 0,0 l/m 1,3 km/h (1 Bft) N 360 12,9 C 20,2 C 2,4 km/h (1 Bft)
27.07.2013 23:10 19,8 C 64 % 1016,2 hPa 0,0 l/m 1,0 km/h (0 Bft) W-SW 247 12,8 C 20,4 C 0,0 km/h (0 Bft)
27.07.2013 23:15 20,0 C 63 % 1016,2 hPa 0,0 l/m 1,0 km/h (0 Bft) W-NW 292 12,7 C 20,6 C 2,4 km/h (1 Bft)
27.07.2013 23:20 19,9 C 63 % 1016,1 hPa 0,0 l/m 1,0 km/h (0 Bft) W-SW 247 12,6 C 20,9 C 2,1 km/h (1 Bft)
27.07.2013 23:25 20,1 C 62 % 1016,1 hPa 0,0 l/m 1,3 km/h (1 Bft) W-NW 292 12,6 C 21,0 C 0,0 km/h (0 Bft)
27.07.2013 23:30 20,1 C 61 % 1016,1 hPa 0,0 l/m 1,0 km/h (0 Bft) O 90 12,3 C 21,0 C 0,0 km/h (0 Bft)
27.07.2013 23:35 20,2 C 60 % 1016,1 hPa 0,0 l/m 0,5 km/h (0 Bft) N 360 12,2 C 20,8 C 0,0 km/h (0 Bft)
27.07.2013 23:40 20,3 C 60 % 1015,9 hPa 0,0 l/m 0,6 km/h (0 Bft) NO 45 12,3 C 20,7 C 2,6 km/h (1 Bft)
27.07.2013 23:45 20,2 C 59 % 1015,9 hPa 0,0 l/m 1,0 km/h (0 Bft) N-NO 22 11,9 C 20,7 C 1,9 km/h (1 Bft)
27.07.2013 23:50 20,5 C 59 % 1015,9 hPa 0,0 l/m 1,1 km/h (1 Bft) O-NO 67 12,2 C 20,7 C 0,0 km/h (0 Bft)
27.07.2013 23:55 20,6 C 58 % 1015,9 hPa 0,0 l/m 1,0 km/h (0 Bft) NO 45 12,0 C 20,8 C 1,9 km/h (1 Bft)
_ Min-Zeit 02:30 14:30 23:55 - 09:40 - - 14:30 02:40 23:50
Minimum _ 16,5 C 24 % 1015,9 hPa - 0,0 km/h (0 Bft) - - 10,6 C 16,7 C 0,0 km/h (0 Bft)
_ Max-Zeit 14:25 02:35 11:15 23:55 13:25 - - 18:50 14:40 12:05
Maximum _ 34,5 C 77 % 1019,4 hPa 0,0 l/m 6,0 km/h
W-NW (2 Bft)
- - 18,0 C 36,4 C 13,4 km/h
NO (3 Bft)
Durchschnitt _ 24,5 C 56 % 1018,0 hPa #0,0 l/m 1,5 km/h (1 Bft) W-NW - 14,1 C 26,0 C 2,1 km/h (1 Bft)